Regional Weather Roundup
Issued by NWS Sterling, VA

Home | Current Version | Previous Version | Text Only | Print | Product List | Glossary Off
Versions: 1 2 3 4 5 6 7 8 9 10 11 12 13 14 15 16 17 18 19 20 21 22 23 24 25 26 27 28 29 30 31 32 33 34 35 36 37 38 39 40 41 42 43 44 45 46 47

000
ASUS41 KLWX 220010
RWRLWX

REGIONAL WEATHER ROUNDUP
NATIONAL WEATHER SERVICE BALTIMORE MD/WASHINGTON DC
800 PM EDT SUN SEP 21 2014

Note: "FAIR" indicates few or no clouds below 12,000 feet
with no significant weather and/or obstructions to visibility.
 TC=TEMPERATURE CELSIUS

 * =Non NWS site. Station does not report precipitation (e.g. rain,
    snow, etc.), thunder, or fog.

DCZ001-MDZ009-015-VAZ040>042-051-053>054-220100-
WASHINGTON METRO

CITY           SKY/WX    TMP DP  RH WIND       PRES   REMARKS
WASHINGTON NAT CLOUDY    81  60  48 S9        29.66S
DULLES         PTCLDY    71  67  87 S7        29.67R
ANDREWS AFB    PTCLDY    73  63  71 S8        29.67S
QUANTICO       PTCLDY    77  66  68 SW6       29.66S
LEESBURG*      PTCLDY    72  70  94 SW3       29.68R
GAITHERSBURG*  PTCLDY    72  64  78 S3        29.71R

$$

MDZ006>007-011-014-220100-
BALTIMORE METRO

CITY           SKY/WX    TMP DP  RH WIND       PRES   REMARKS
BWI AIRPORT    PTCLDY    73  66  78 SE3       29.65S
MD SCIENCE CTR   N/A     76  65  68 MISG      29.66S
MARTIN STATE   PTCLDY    73  66  78 CALM      29.67S
ANNAPOLIS        N/A     73  64  73 SE5       29.66S
FORT MEADE*    PTCLDY    68  64  88 CALM      29.68S

$$

MDZ012-015-019>023-220100-
MARYLAND EASTERN SHORE

CITY           SKY/WX    TMP DP  RH WIND       PRES   REMARKS
OCEAN CITY     CLEAR     72  69  90 CALM      29.69R FOG
SALISBURY      CLEAR     73  67  81 SW7       29.69R
BAY BRIDGE AP*   N/A     73  59  60 S6        29.66F
EASTON*        PTCLDY    73  61  64 CALM      29.71R

$$

MDZ017>025-220100-
SOUTHERN MARYLAND

CITY           SKY/WX    TMP DP  RH WIND       PRES   REMARKS
PATUXENT RIVER CLEAR     74  62  66 S6        29.68R
ST INIGOES     CLEAR     75  61  61 S8        29.68R
LEONARDTOWN*   CLEAR     73  61  64 S5        29.70R

$$

MDZ003>005-220100-
NORTH CENTRAL MARYLAND

CITY           SKY/WX    TMP DP  RH WIND       PRES   REMARKS
FREDERICK*     MOCLDY    75  66  73 VRB3      29.68R
HAGERSTOWN APT MOCLDY    73  61  65 NW3       29.69R
WESTMINSTER*   PTCLDY    73  66  78 S5        29.67F

$$

MDZ501>502-220100-
WESTERN MARYLAND

CITY           SKY/WX    TMP DP  RH WIND       PRES   REMARKS
OAKLAND*       MOCLDY    61  61 100 W8        29.82R
CUMBERLAND*    MOCLDY    70  61  73 SW6       29.76R

$$

VAZ025>031-220100-
SHENANDOAH VALLEY

CITY           SKY/WX    TMP DP  RH WIND       PRES   REMARKS
WINCHESTER*    CLOUDY    73  55  53 W16G24    29.72R
STAUNTON*      CLEAR     75  59  57 SW8       29.77R

$$

WVZ021-048>050-054>055-220100-
EASTERN WEST VIRGINIA PANHANDLE

CITY           SKY/WX    TMP DP  RH WIND       PRES   REMARKS
MARTINSBURG    CLOUDY    79  55  43 W22G33    29.70R
PETERSBURG*    MOCLDY    74  54  50 W10       29.76R

$$

VAZ036>039-050-220100-
CENTRAL FOOTHILLS

CITY           SKY/WX    TMP DP  RH WIND       PRES   REMARKS
CHARLOTTESVILL PTCLDY    78  62  57 VRB6      29.72R
ORANGE*        PTCLDY    79  63  57 S8        29.71R

$$

VAZ055>057-220100-
NORTH AND CENTRAL PIEDMONT

CITY           SKY/WX    TMP DP  RH WIND       PRES   REMARKS
FREDERICKSBRG* PTCLDY    81  65  57 S9        29.66R
STAFFORD*      PTCLDY    77  64  63 CALM      29.71R

$$

NCZ024-NYZ072-PAZ021-071-VAZ022-071-220100-
OTHER REGIONAL OBSERVATIONS

CITY           SKY/WX    TMP DP  RH WIND       PRES   REMARKS
NEW YORK CITY  MOCLDY    72  65  78 VRB3      29.65R
PHILADELPHIA   MOCLDY    74  66  76 SW6       29.65R
PITTSBURGH     PTCLDY    66  46  48 W22G31    29.78R
ROANOKE        PTCLDY    71  65  81 W9        29.83R
RICHMOND       PTCLDY    81  65  58 SW13      29.72R
RALEIGH        PTCLDY    76  64  66 SW8       29.82R

$$

ANZ530>537-220100-
MARINE OBSERVATIONS

STATION/POSITION TIME  TEMP    WIND        PRES
                       AIR SEA DIR/SP/G
                 (UTC) (F)     (DEG/KT/KT) (MB)
THOMAS PT LIGHT  0000   75 74  180/ 12/ 13 1005.3F
BALT KEY BRIDGE  0000   76     180/  5/  7 1003.9S
COVE POINT       0000   76     200/  8/  9 1004.8R
LEWISETTA        0000   76 76  210/  8/  9 1004.9R
SOLOMONS ISLAND  0000      76                N/A
PINEY POINT      0000          200/  8/  9   N/A

$$




USA.gov is the U.S. government's official web portal to all federal, state and local government web resources and services.